{"data":{"norad_id":65078,"intl_designator":"2025-167A","name":"STARLINK-34771","alt_names":[],"object_type":"PAYLOAD","status":"ACTIVE","operator":null,"country":"US","launch_date":"2025-08-04","launch_site_code":"AFETR","launch_vehicle":null,"mission":null,"orbit_class":"UNKNOWN","rcs_meters":null,"size_class":null,"mass_kg":null,"dimensions":null,"purposes":["comms"],"wikipedia_slug":null,"has_3d_model":false,"image_url":null,"decayed_at":null,"tle_current":{"epoch":"2026-05-25T02:12:27.575712Z","epoch_age_seconds":63152,"freshness":"FRESH","line1":"1 65078U 25167A   26145.09198583  .00027196  00000+0  92690-3 0  9991","line2":"2 65078  53.1597  29.2533 0001043  85.9344 274.1776 15.30202982 45211","mean_motion":15.30202982,"eccentricity":0.0001043,"inclination_deg":53.1597,"raan_deg":29.2533,"arg_perigee_deg":85.9344,"mean_anomaly_deg":274.1776,"bstar":0.0009269,"rev_number":4521,"period_min":94.105162317609,"perigee_km":474.49136202711,"apogee_km":475.92096941148,"semimajor_km":6853.3431657193,"source":"CELESTRAK","updated_at":"2026-05-25T13:38:20.682100Z"}}}